This is the latest recevied weather packets stored in our database for station/object 9W2IJB-3. If no packets are shown the sender has not sent any weather packets the latest 10 day(s).
| Time | Temp. | Humidity | Pressure | Rain* | Wind** | Luminosity | Snow |
|---|---|---|---|---|---|---|---|
| 1777955890 | 30.56° C | 64% | 1021.3 hPa | - | - | - | - |
| 1777954690 | 30.56° C | 63% | 1021.7 hPa | - | - | - | - |
| 1777953490 | 29.44° C | 66% | 1021.9 hPa | - | - | - | - |
| 1777952290 | 28.33° C | 68% | 1021.8 hPa | - | - | - | - |
| 1777951090 | 28.33° C | 69% | 1022.1 hPa | - | - | - | - |
| 1777949890 | 27.78° C | 70% | 1022.3 hPa | - | - | - | - |
| 1777948690 | 27.78° C | 69% | 1022.4 hPa | - | - | - | - |
| 1777947490 | 27.78° C | 69% | 1022.5 hPa | - | - | - | - |
| 1777946289 | 27.78° C | 69% | 1022.5 hPa | - | - | - | - |
| 1777945089 | 27.78° C | 68% | 1022.4 hPa | - | - | - | - |
| 1777943889 | 27.22° C | 69% | 1022.1 hPa | - | - | - | - |
| 1777942689 | 27.22° C | 69% | 1022 hPa | - | - | - | - |
| 1777941522 | 26.67° C | 70% | 1021.5 hPa | - | - | - | - |
| 1777941489 | 26.67° C | 70% | 1021.5 hPa | - | - | - | - |
| 1777940289 | 26.11° C | 70% | 1021.3 hPa | - | - | - | - |
| 1777939089 | 25.56° C | 70% | 1021.2 hPa | - | - | - | - |
| 1777937889 | 25.56° C | 70% | 1021.2 hPa | - | - | - | - |
| 1777936689 | 25.56° C | 70% | 1021.1 hPa | - | - | - | - |
| 1777935489 | 25.56° C | 70% | 1021 hPa | - | - | - | - |
| 1777934289 | 25.56° C | 71% | 1020.9 hPa | - | - | - | - |
| 1777933089 | 25.56° C | 70% | 1020.6 hPa | - | - | - | - |
| 1777931889 | 25.56° C | 69% | 1020.4 hPa | - | - | - | - |
| 1777930689 | 25.56° C | 68% | 1020.3 hPa | - | - | - | - |
| 1777929489 | 25.56° C | 69% | 1020.4 hPa | - | - | - | - |
| 1777928289 | 25.56° C | 69% | 1020.4 hPa | - | - | - | - |
* Rain since midnight (hover to see other rain measurements)
** Current wind speed in m/s (hover to see current wind gust speed)